Location: Bun Machan
(52.1403°N, 7.3744°W)
Time: 19:15:50
(UTC+00:00)

Cosmos 494 Rocket - Pass Details

Date: 14 July 2020
Orbit: 743 x 770 km, 74.1° (Epoch: 12 August)

Event Time Altitude Azimuth Distance (km) Brightness Sun altitude
Exits shadow 00:20:26 19° 214° (SW) 1,716 5.4 -16.2°
Maximum altitude 00:24:06 73° 297° (WNW) 787 4.1 -16.2°
Drops below altitude 10° 00:29:16 10° 23° (NNE) 2,275 7.5 -16.2°
Sets 00:31:38 0° 25° (NNE) 3,200 8.4 -16.2°
